sat.trackr.live / text

‹ back to catalog

GS-1

NORAD 56372 · 2023-060C

PAYLOAD ACTIVE UNKNOWN

§ Identity

Operator
Country
US
Launch date
2023-05-01
Launch site
AFETR
Launch vehicle
Mass (kg)
RCS (m²)

Purposes: comms

External: N2YO · Heavens-Above · Gunter

§ Orbital elements

Epoch: 2026-09-19T20:52:19.930368Z

Period
1,436.41 min
Inclination
2.9629°
Eccentricity
0.0003053
Mean motion
1.00249628 rev/d
Perigee alt
35,779.9 km
Apogee alt
35,805.7 km
Semi-major
42,170.9 km
B*
0.0000e+0
RAAN
78.6247°
Arg perigee
262.9551°
Mean anomaly
56.2431°
Rev number
848

§ Raw data

GS-11 56372U 23060C   26262.86967512 -.00000192  00000+0  00000+0 0  99972 56372   2.9629  78.6247 0003053 262.9551  56.2431  1.00249628  8481

JSON: /api/v1/satellites/56372 · /tle

For live sub-satellite position, see the globe view (requires WebGL).

§ Visibility from observer

Set your observer location to see the next 7 days of passes ≥ 10°. The values pass through the URL so the page stays shareable.

No JS? Fill the form by hand. The geolocation button needs JavaScript.